Weather History for KSYN - April, 2013

Change the Weather History Date:

Friday, April 19, 2013

  Actual Average (KLVN) Record (KLVN)
Temperature  
Mean Temperature 34 °F -  
Max Temperature 37 °F 61 °F 90 °F (1985)
Min Temperature 30 °F 40 °F 20 °F (1983)
Degree Days  
Heating Degree Days 31    
Moisture  
Dew Point 26 °F    
Average Humidity 74    
Maximum Humidity 90    
Minimum Humidity 57    
Precipitation  
Precipitation 0.01 in - - ()
Sea Level Pressure  
Sea Level Pressure 29.66 in    
Wind  
Wind Speed 18 mph (NW)    
Max Wind Speed 23 mph    
Max Gust Speed 31 mph    
Visibility 7 miles    
Events Snow    
Averages and records for this station are not official NWS values.
T = Trace of Precipitation, MM = Missing Value Source: NWS Daily Summary

Daily Weather History Graph

Daily Weather History Graph

Search for Another Location

Airport or City:

Trip Planner

Search our weather history database for the weather conditions in past years. The results will help you decide how hot, cold, wet, or windy it might be!

Date:

Astronomy

Apr. 19, 2013 Rise Set
Actual Time 6:20 AM CDT 8:02 PM CDT
Civil Twilight 5:50 AM CDT 8:32 PM CDT
Nautical Twilight 5:12 AM CDT 9:10 PM CDT
Astronomical Twilight 4:32 AM CDT 9:50 PM CDT
Moon 1:33 PM CDT (4/19) 2:51 AM CDT (4/19)
Length of Visible Light 14h 42m
Length of Day
13h 41m
First Quarter, 62% of the Moon is Illuminated
Apr 19
First Quarter
Apr 25
Full
May 2
Last Quarter
May 9
New
May 17
First Quarter

Hourly Weather History & Observations

Time (CDT) Temp. Windchill Dew Point Humidity Pressure Visibility Wind Dir Wind Speed Gust Speed Precip Events Conditions
12:13 AM 32.4 °F 19.7 °F 29.8 °F 90% 29.46 in 3.0 mi NW 23.0 mph 28.8 mph N/A Snow Light Snow
12:33 AM 32.5 °F 20.2 °F 29.7 °F 89% 29.46 in 4.0 mi NW 21.9 mph 28.8 mph N/A Snow Light Snow
12:53 AM 32.4 °F 20.0 °F 29.3 °F 88% 29.46 in 4.0 mi NW 21.9 mph 27.6 mph N/A Snow Light Snow
1:13 AM 32.2 °F 20.7 °F 29.7 °F 90% 29.46 in 2.5 mi NW 18.4 mph - N/A Snow Light Snow
1:33 AM 32.2 °F 21.1 °F 29.5 °F 90% 29.46 in 5.0 mi NW 17.3 mph 24.2 mph N/A Snow Light Snow
1:53 AM 32.2 °F 19.7 °F 29.3 °F 89% 29.46 in 4.0 mi NW 21.9 mph - N/A Snow Light Snow
2:13 AM 32.0 °F 20.5 °F 29.5 °F 90% 29.45 in 2.0 mi NW 18.4 mph 25.3 mph N/A Snow Light Snow
2:33 AM 32.0 °F 20.8 °F 29.3 °F 90% 29.45 in 3.0 mi NW 17.3 mph - N/A Snow Light Snow
2:52 AM 32.0 °F 21.2 °F 29.3 °F 90% 29.46 in 3.0 mi NW 16.1 mph - N/A Snow Light Snow
3:13 AM 32.0 °F 20.5 °F 29.1 °F 89% 29.46 in 5.0 mi NW 18.4 mph 23.0 mph N/A Snow Light Snow
3:33 AM 32.0 °F 20.1 °F 28.9 °F 88% 29.46 in 7.0 mi NW 19.6 mph 25.3 mph N/A Snow Light Snow
3:53 AM 32.0 °F 20.1 °F 28.9 °F 88% 29.46 in 7.0 mi NW 19.6 mph 24.2 mph N/A Snow Light Snow
4:13 AM 32.0 °F 20.1 °F 28.8 °F 88% 29.47 in 4.0 mi NW 19.6 mph - N/A Snow Light Snow
4:33 AM 32.0 °F 20.1 °F 28.4 °F 87% 29.47 in 7.0 mi NW 19.6 mph - N/A Snow Light Snow
4:53 AM 32.0 °F 20.8 °F 28.4 °F 87% 29.48 in 7.0 mi NW 17.3 mph 24.2 mph N/A Snow Light Snow
5:13 AM 32.0 °F 21.2 °F 28.2 °F 86% 29.48 in 7.0 mi NW 16.1 mph 25.3 mph N/A Snow Light Snow
5:53 AM 32.0 °F 20.1 °F 27.9 °F 85% 29.50 in 7.0 mi NW 19.6 mph 24.2 mph N/A Snow Light Snow
6:13 AM 32.0 °F 20.1 °F 27.9 °F 85% 29.51 in 10.0 mi NW 19.6 mph - N/A Snow Light Snow
6:33 AM 32.0 °F 20.5 °F 27.5 °F 83% 29.52 in 10.0 mi NW 18.4 mph - N/A   Overcast
6:53 AM 32.0 °F 20.1 °F 27.5 °F 83% 29.52 in 7.0 mi NW 19.6 mph 23.0 mph N/A Snow Light Snow
7:13 AM 32.0 °F 20.1 °F 27.5 °F 83% 29.53 in 3.0 mi NW 19.6 mph 24.2 mph N/A Snow Light Snow
7:33 AM 32.0 °F 20.5 °F 27.1 °F 82% 29.53 in 7.0 mi NW 18.4 mph - N/A Snow Light Snow
7:53 AM 32.0 °F 21.2 °F 26.6 °F 80% 29.54 in 10.0 mi NNW 16.1 mph 25.3 mph N/A   Overcast
8:13 AM 32.0 °F 20.5 °F 26.1 °F 79% 29.55 in 10.0 mi NW 18.4 mph - N/A   Overcast
8:33 AM 32.0 °F 20.5 °F 25.7 °F 78% 29.55 in 7.0 mi NW 18.4 mph 27.6 mph N/A   Overcast
8:53 AM 32.0 °F 20.5 °F 25.7 °F 78% 29.56 in 10.0 mi NW 18.4 mph 24.2 mph N/A   Overcast
9:13 AM 31.8 °F 20.2 °F 25.0 °F 76% 29.57 in 5.0 mi NNW 18.4 mph 25.3 mph N/A Snow Light Snow
9:33 AM 31.8 °F 19.9 °F 26.2 °F 80% 29.57 in 2.5 mi NW 19.6 mph 23.0 mph N/A Snow Light Snow
9:53 AM 31.8 °F 20.6 °F 26.4 °F 80% 29.58 in 2.0 mi NNW 17.3 mph - N/A Snow Light Snow
10:13 AM 32.0 °F 20.1 °F 27.0 °F 82% 29.59 in 1.5 mi NW 19.6 mph 23.0 mph N/A Snow Light Snow
10:33 AM 32.5 °F 22.3 °F 26.6 °F 79% 29.60 in 5.0 mi NW 15.0 mph 24.2 mph N/A Snow Light Snow
10:53 AM 32.0 °F 21.2 °F 26.6 °F 80% 29.61 in 2.5 mi NW 16.1 mph - N/A Snow Light Snow
11:13 AM 32.5 °F 20.2 °F 25.3 °F 75% 29.61 in 3.0 mi NNW 21.9 mph 28.8 mph N/A Snow Light Snow
11:33 AM 33.3 °F 21.2 °F 25.0 °F 72% 29.63 in 5.0 mi NNW 21.9 mph - N/A Snow Light Snow
11:53 AM 32.7 °F 21.1 °F 23.9 °F 70% 29.64 in 5.0 mi NNW 19.6 mph - N/A Snow Light Snow
12:13 PM 32.2 °F 21.1 °F 25.2 °F 75% 29.65 in 4.0 mi NNW 17.3 mph 23.0 mph N/A Snow Light Snow
12:33 PM 32.2 °F 21.8 °F 25.5 °F 76% 29.66 in 4.0 mi NW 15.0 mph - N/A Snow Light Snow
12:53 PM 32.0 °F 20.5 °F 26.1 °F 79% 29.67 in 3.0 mi NW 18.4 mph 21.9 mph N/A Snow Light Snow
1:13 PM 33.8 °F 22.8 °F 23.0 °F 65% 29.67 in 7.0 mi NW 18.4 mph - N/A   Overcast
1:33 PM 34.0 °F 23.8 °F 23.5 °F 66% 29.68 in 7.0 mi NW 16.1 mph - 0.01 in   Overcast
1:53 PM 34.5 °F 23.4 °F 24.1 °F 66% 29.70 in 7.0 mi NW 19.6 mph 25.3 mph 0.01 in   Overcast
2:13 PM 34.7 °F 24.0 °F 25.5 °F 69% 29.70 in 10.0 mi WNW 18.4 mph - N/A   Overcast
2:33 PM 35.2 °F 24.4 °F 25.5 °F 68% 29.71 in 10.0 mi NW 19.6 mph 25.3 mph N/A   Mostly Cloudy
2:53 PM 35.2 °F 24.1 °F 24.3 °F 64% 29.72 in 10.0 mi NW 20.7 mph 28.8 mph N/A   Mostly Cloudy
3:13 PM 35.8 °F 24.5 °F 23.5 °F 61% 29.72 in 10.0 mi NNW 21.9 mph - N/A   Mostly Cloudy
3:33 PM 36.0 °F 24.7 °F 23.7 °F 61% 29.73 in 10.0 mi NW 21.9 mph 27.6 mph N/A   Overcast
3:53 PM 36.9 °F 26.2 °F 23.7 °F 59% 29.74 in 10.0 mi NW 20.7 mph - N/A   Overcast
4:13 PM 36.5 °F 26.0 °F 23.0 °F 58% 29.75 in 10.0 mi NW 19.6 mph 29.9 mph N/A   Overcast
4:33 PM 37.4 °F 26.9 °F 23.4 °F 57% 29.76 in 10.0 mi NNW 20.7 mph 27.6 mph N/A   Overcast
4:53 PM 37.8 °F 28.6 °F 23.9 °F 57% 29.77 in 10.0 mi NNW 16.1 mph 28.8 mph N/A   Overcast
5:13 PM 36.3 °F 25.8 °F 23.5 °F 60% 29.78 in 10.0 mi NW 19.6 mph - N/A   Mostly Cloudy
5:33 PM 37.4 °F 26.4 °F 23.2 °F 57% 29.80 in 10.0 mi NW 23.0 mph 31.1 mph N/A   Overcast
5:53 PM 36.7 °F 27.2 °F 23.4 °F 59% 29.81 in 10.0 mi NW 16.1 mph - N/A   Mostly Cloudy
6:13 PM 37.0 °F 28.1 °F 23.0 °F 57% 29.81 in 10.0 mi NNW 15.0 mph - N/A   Mostly Cloudy
6:33 PM 36.5 °F 27.0 °F 23.2 °F 59% 29.83 in 10.0 mi NNW 16.1 mph - N/A   Mostly Cloudy
6:53 PM 35.8 °F 28.3 °F 22.6 °F 59% 29.84 in 10.0 mi NNW 10.4 mph - N/A   Mostly Cloudy
7:13 PM 35.4 °F 27.8 °F 22.6 °F 60% 29.85 in 10.0 mi NNW 10.4 mph - N/A   Scattered Clouds
7:33 PM 35.1 °F 29.3 °F 24.1 °F 64% 29.86 in 10.0 mi NW 6.9 mph - N/A   Mostly Cloudy
7:53 PM 35.1 °F 27.9 °F 23.7 °F 63% 29.87 in 10.0 mi NW 9.2 mph - N/A   Overcast
8:12 PM 34.9 °F 26.2 °F 22.1 °F 60% 29.88 in 10.0 mi NW 12.7 mph - N/A   Overcast
8:33 PM 34.3 °F 27.0 °F 21.7 °F 60% 29.89 in 10.0 mi NW 9.2 mph - N/A   Scattered Clouds
8:53 PM 32.7 °F 27.3 °F 23.5 °F 69% 29.90 in 10.0 mi WNW 5.8 mph - N/A   Clear
9:12 PM 32.4 °F 26.9 °F 23.0 °F 68% 29.91 in 10.0 mi West 5.8 mph - N/A   Clear
9:33 PM 32.5 °F 26.2 °F 23.5 °F 69% 29.92 in 10.0 mi West 6.9 mph - N/A   Clear
9:53 PM 32.2 °F 24.4 °F 23.9 °F 72% 29.93 in 10.0 mi West 9.2 mph - N/A   Clear
10:12 PM 32.2 °F 24.4 °F 23.5 °F 70% 29.94 in 10.0 mi West 9.2 mph - N/A   Clear
10:33 PM 32.0 °F 23.0 °F 23.0 °F 69% 29.94 in 10.0 mi WNW 11.5 mph - N/A   Clear
10:53 PM 31.6 °F 23.1 °F 22.6 °F 69% 29.95 in 10.0 mi WNW 10.4 mph - N/A   Clear
11:12 PM 31.1 °F 22.4 °F 22.1 °F 69% 29.95 in 10.0 mi WNW 10.4 mph - N/A   Clear
11:33 PM 30.7 °F 22.6 °F 21.7 °F 69% 29.96 in 10.0 mi WNW 9.2 mph - N/A   Clear